Palm Springs, CA

6:41 PM PST on February 13, 2016 (GMT -0800)
Palm Springs International

Weather History for KPSP - October, 2014

Change the Weather History Date:

Monday, October 27, 2014

  Actual Average Record
Temperature  
Mean Temperature 74 °F 72 °F  
Max Temperature 89 °F 85 °F 102 °F (1962)
Min Temperature 59 °F 59 °F 42 °F (1940)
Degree Days  
Heating Degree Days 0 0  
Month to date heating degree days 0 0  
Since 1 July heating degree days 0 0  
Cooling Degree Days 9 7  
Month to date cooling degree days 454 309  
Year to date cooling degree days 4812 4035  
Growing Degree Days 25 (Base 50)    
Moisture  
Dew Point 41 °F    
Average Humidity 35    
Maximum Humidity 60    
Minimum Humidity 10    
Precipitation  
Precipitation 0.00 in 0.01 in 0.63 in (2004)
Month to date precipitation 0.00 0.36  
Year to date precipitation 1.94 4.25  
Since 1 July precipitation 1.19  
Snow  
Snow 0.00 in - - ()
Month to date snowfall 0.0  
Year to date snowfall 0.0  
Snow Depth 0.00 in    
Sea Level Pressure  
Sea Level Pressure 29.86 in    
Wind  
Wind Speed 3 mph (NW)    
Max Wind Speed 12 mph    
Max Gust Speed 16 mph    
Visibility 10 miles    
Events      
T = Trace of Precipitation, MM = Missing Value Source: NWS Daily Summary

Daily Weather History Graph

Daily Weather History Graph

Search for Another Location

Airport or City:

Trip Planner

Search our weather history database for the weather conditions in past years. The results will help you decide how hot, cold, wet, or windy it might be!

Date:

Astronomy

Oct. 27, 2014 Rise Set
Actual Time 7:00 AM PDT 5:58 PM PDT
Civil Twilight 6:35 AM PDT 6:23 PM PDT
Nautical Twilight 6:06 AM PDT 6:53 PM PDT
Astronomical Twilight 5:37 AM PDT 7:22 PM PDT
Moon 10:35 AM PDT (10/27) 9:13 PM PDT (10/27)
Length of Visible Light 11h 48m
Length of Day
10h 57m
Waxing Crescent, 16% of the Moon is Illuminated
Oct 27
Waxing Crescent
Oct 30
First Quarter
Nov 6
Full
Nov 14
Last Quarter
Nov 22
New

Hourly Weather History & Observations

Time (PDT) Temp. Dew Point Humidity Pressure Visibility Wind Dir Wind Speed Gust Speed Precip Events Conditions
12:53 AM 69.1 °F 45.0 °F 42% 29.81 in 10.0 mi WSW 3.5 mph - N/A   Clear
1:53 AM 72.0 °F 51.1 °F 48% 29.82 in 10.0 mi WNW 8.1 mph - N/A   Clear
2:53 AM 61.0 °F 46.9 °F 60% 29.82 in 10.0 mi Calm Calm - N/A   Clear
3:53 AM 66.9 °F 42.1 °F 40% 29.82 in 10.0 mi WNW 5.8 mph - N/A   Clear
4:53 AM 66.0 °F 50.0 °F 56% 29.83 in 10.0 mi WNW 6.9 mph - N/A   Clear
5:53 AM 62.1 °F 46.0 °F 56% 29.83 in 10.0 mi Calm Calm - N/A   Clear
6:53 AM 66.0 °F 50.0 °F 56% 29.86 in 10.0 mi West 5.8 mph - N/A   Clear
7:53 AM 64.9 °F 48.0 °F 54% 29.87 in 10.0 mi Calm Calm - N/A   Clear
8:53 AM 68.0 °F 48.0 °F 49% 29.89 in 10.0 mi Calm Calm - N/A   Clear
9:53 AM 73.9 °F 41.0 °F 30% 29.89 in 10.0 mi Calm Calm - N/A   Clear
10:53 AM 82.0 °F 41.0 °F 23% 29.90 in 10.0 mi Calm Calm - N/A   Clear
11:53 AM 84.0 °F 34.0 °F 17% 29.88 in 10.0 mi SE 3.5 mph - N/A   Clear
12:53 PM 86.0 °F 28.9 °F 13% 29.86 in 10.0 mi Calm Calm - N/A   Clear
1:53 PM 88.0 °F 28.0 °F 12% 29.83 in 10.0 mi Calm Calm - N/A   Clear
2:53 PM 89.1 °F 27.0 °F 11% 29.83 in 10.0 mi NE 3.5 mph - N/A   Clear
3:53 PM 89.1 °F 27.0 °F 11% 29.82 in 10.0 mi SW 3.5 mph - N/A   Clear
4:53 PM 88.0 °F 30.0 °F 12% 29.82 in 10.0 mi SSE 5.8 mph - N/A   Clear
5:53 PM 84.9 °F 33.1 °F 16% 29.83 in 10.0 mi ESE 5.8 mph - N/A   Clear
6:53 PM 81.0 °F 39.0 °F 22% 29.85 in 10.0 mi East 3.5 mph - N/A   Clear
7:53 PM 81.0 °F 39.0 °F 22% 29.87 in 10.0 mi NNE 3.5 mph - N/A   Clear
8:53 PM 75.9 °F 48.0 °F 37% 29.89 in 10.0 mi NW 5.8 mph - N/A   Clear
9:53 PM 73.0 °F 46.0 °F 38% 29.91 in 10.0 mi NW 5.8 mph - N/A   Clear
10:53 PM 72.0 °F 48.9 °F 44% 29.92 in 10.0 mi NW 5.8 mph - N/A   Clear
11:53 PM 70.0 °F 48.0 °F 46% 29.92 in 10.0 mi NW 8.1 mph - N/A   Clear